Regional Weather Roundup
Issued by NWS

Home | Current Version | Previous Version | Graphics & Text | Print | Product List | Glossary On
Versions: 1 2 3 4 5 6 7 8 9 10 11 12 13 14 15 16 17 18 19 20 21 22 23 24 25 26 27 28 29 30 31 32 33 34 35 36 37 38 39 40 41 42 43 44 45 46 47 48 49 50
000
ASUS43 KLMK 260002
RWRKY
KENTUCKY REGIONAL WEATHER ROUNDUP
NATIONAL WEATHER SERVICE LOUISVILLE KY
800 PM EDT WED MAY 25 2016

NOTE "FAIR" INDICATES FEW OR NO CLOUDS BELOW 12,000 FEET
WITH NO SIGNIFICANT WEATHER AND/OR OBSTRUCTIONS TO VISIBILITY.

KYZ001>023-026-027-061>063-070>075-260100-
WESTERN AND SOUTH CENTRAL KENTUCKY

CITY           SKY/WX    TMP DP  RH WIND       PRES   REMARKS
PADUCAH        CLOUDY    71  66  84 S6        30.04R
HENDERSON      CLOUDY    72  63  73 S14       30.02R
OWENSBORO      CLOUDY    71  66  84 S14G21    30.03R
HOPKINSVILLE   NOT AVBL
BOWLING GREEN  LGT RAIN  68  65  90 SE15      30.08F
GLASGOW        NOT AVBL
$$

KYZ024-025-028>034-038-045-046-053-260100-
NORTH CENTRAL KENTUCKY

CITY           SKY/WX    TMP DP  RH WIND       PRES   REMARKS
LOUISVILLE/SDF CLOUDY    77  61  57 S15       30.05S
LOUISVILLE/LOU CLOUDY    77  61  57 S9G17     30.06S
FORT KNOX      PTCLDY    71  63  75 SE13      30.05F
$$

KYZ035>037-039>044-047>052-055>060-089>105-260100-
NORTHEAST KENTUCKY

CITY           SKY/WX    TMP DP  RH WIND       PRES   REMARKS
LEXINGTON      PTCLDY    75  61  61 S8        30.10S
COVINGTON      MOCLDY    78  63  59 S9        30.05R
FRANKFORT      CLOUDY    77  62  59 S12       30.07S
$$

KYZ054-064>069-076>088-106>120-260100-
SOUTHEAST KENTUCKY

CITY           SKY/WX    TMP DP  RH WIND       PRES   REMARKS
JACKSON        CLOUDY    73  60  63 CALM      30.16R
LONDON         CLOUDY    75  63  66 S5        30.15S
SOMERSET       NOT AVBL
MIDDLESBORO    NOT AVBL
MONTICELLO     CLOUDY    75  65  70 W5        30.17R
$$




USA.gov is the U.S. government's official web portal to all federal, state and local government web resources and services.